Wind_Speed
18 19 19 19 20 21 21 21 22 22 23 24 24 24 23 24 24 24 24 24 25 26 26 26 27 27 27 27 27 27 28 28 28 28 29 30 30 31
17 18 19 19 20 21 22 22 23 24 24 24 23 24 24 24 24 25 25 25 26 26 26 26 27 28 28 29 29 29 29 30 30 30 30 31 32 32
18 18 18 19 19 20 21 21 23 23 24 24 23 24 24 24 25 25 25 26 26 27 27 27 28 29 29 30 30 30 30 30 31 31 32 33 33 33
18 19 19 19 20 20 21 22 22 23 23 24 24 25 25 26 26 27 26 27 28 28 28 28 29 30 30 31 31 31 32 32 33 33 34 35 34 35
18 18 19 19 20 21 22 22 23 23 23 24 25 26 27 28 28 28 28 28 29 29 30 30 31 31 31 31 31 32 33 34 34 35 36 36 36 36
19 19 20 21 21 22 23 23 23 23 24 25 26 27 28 29 30 29 30 30 31 31 32 32 32 32 32 32 33 33 34 35 35 36 37 37 36 36
20 20 20 21 22 22 23 23 23 24 25 26 27 28 29 30 31 31 31 32 32 32 33 33 34 34 33 34 34 34 35 35 35 36 37 37 36 36
21 21 21 22 22 23 23 24 24 25 26 27 28 29 30 30 30 30 31 32 32 33 34 34 35 35 35 35 35 35 36 36 36 36 35 35 35 35
21 22 22 23 23 23 24 25 25 26 26 27 28 29 30 30 31 31 32 32 33 33 34 34 35 35 36 36 36 35 36 36 36 36 36 35 35 34
23 23 23 24 24 24 25 26 26 26 26 27 28 29 30 30 31 31 32 32 33 33 34 34 34 34 35 36 36 36 36 37 37 37 36 36 35 35
24 24 24 24 25 25 26 26 27 28 28 28 28 29 30 30 31 31 32 33 33 33 34 34 35 35 35 35 35 36 36 36 36 36 36 36 36 36
24 25 24 25 25 26 25 25 26 27 28 28 29 29 29 30 30 31 32 33 33 33 34 34 35 35 35 35 35 35 35 36 36 36 35 35 35 35
25 25 25 25 25 26 26 26 27 27 28 28 29 30 30 30 31 32 32 33 33 33 34 34 35 35 35 35 35 35 35 35 34 34 34 34 34 34
25 25 25 25 25 25 26 26 27 27 28 29 29 29 30 30 31 32 32 32 32 33 33 33 34 34 35 35 34 34 33 33 33 33 33 34 33 33
26 25 25 25 26 26 26 27 27 28 28 28 29 29 30 31 31 32 32 32 32 33 33 33 33 34 34 34 34 33 32 32 32 32 32 33 33 33
26 26 26 26 27 27 27 27 27 28 28 29 29 30 30 31 31 32 32 32 33 33 34 33 34 34 33 33 33 33 33 32 31 31 31 31 31 32
27 27 27 27 27 27 27 28 28 29 29 30 30 31 31 31 31 31 32 33 33 33 34 34 34 33 33 33 32 32 31 31 31 31 31 30 30 30
27 27 27 27 27 27 28 29 29 30 30 31 31 31 32 32 32 32 32 32 33 33 33 33 33 33 33 32 31 31 31 30 30 30 30 31 31 30
27 27 27 27 28 28 29 30 30 30 31 31 31 32 32 32 33 32 32 32 33 33 33 33 32 32 32 31 30 30 30 30 31 30 30 30 30 31
27 27 28 28 28 29 29 30 30 30 31 31 32 32 32 32 32 32 32 32 32 32 32 32 32 32 31 31 31 30 30 31 30 30 30 30 30 31
28 28 28 29 29 29 30 30 31 31 31 32 32 32 32 32 31 32 32 32 32 31 31 31 31 31 31 31 31 30 30 30 30 30 30 30 30 30
29 29 29 29 30 30 30 31 31 31 31 32 32 31 31 31 31 31 31 31 31 31 31 31 30 30 30 30 29 29 29 29 30 30 29 29 29 29
29 30 30 30 31 31 31 32 32 31 31 31 31 31 30 30 31 31 31 31 31 31 30 30 29 29 29 29 29 29 29 30 30 29 28 28 28 28
Wind_Direction
282 278 276 275 274 273 272 271 271 272 274 274 275 277 277 276 277 279 280 281 281 280 281 282 282 282 282 283 282 283 283 283 283 282 282 282 282 282
280 280 280 277 276 275 274 274 274 274 273 273 276 277 278 279 279 279 278 279 281 281 281 282 282 283 283 283 283 282 281 281 282 283 283 281 281 281
283 282 283 283 281 278 277 276 276 277 278 277 278 279 280 280 280 280 281 282 283 283 282 281 281 282 282 282 283 282 282 281 282 282 282 282 282 283
290 288 285 286 283 282 281 279 279 279 279 279 279 280 281 281 281 280 282 283 285 284 283 283 282 282 282 282 282 282 282 282 282 283 283 283 283 283
293 291 289 288 288 286 284 283 281 282 282 281 280 280 282 283 283 283 283 283 285 284 283 284 284 284 283 283 284 283 283 283 282 282 282 283 283 283
292 291 292 290 290 289 287 285 284 283 283 282 282 282 283 283 283 284 283 284 285 285 285 285 285 286 286 285 285 285 285 285 284 284 284 284 284 283
293 291 291 289 290 289 287 285 284 284 285 286 285 284 283 283 283 284 284 285 286 286 286 285 285 285 286 287 287 287 287 287 287 286 285 285 285 285
295 293 292 292 289 289 289 287 287 287 287 288 288 286 285 285 285 286 286 287 288 288 287 285 286 287 288 287 287 287 286 286 287 286 285 285 284 283
298 299 297 292 290 289 290 290 290 290 290 289 289 288 287 287 287 288 289 289 289 289 289 289 288 287 287 286 286 286 286 286 286 286 285 285 284 283
302 300 300 298 295 293 292 292 291 292 291 291 291 291 290 290 289 290 291 292 292 292 292 292 290 290 288 287 286 286 288 288 288 287 286 285 284 284
302 301 299 297 296 294 293 293 292 292 291 290 290 290 291 291 291 291 292 293 293 293 293 292 291 290 289 289 288 287 287 288 287 287 286 285 284 283
300 300 300 298 297 297 295 295 295 294 293 293 293 292 293 293 293 294 293 293 294 294 293 292 291 291 290 290 289 289 289 289 288 287 285 284 284 284
301 301 301 299 299 298 296 296 296 296 296 296 295 295 295 295 295 297 297 295 294 294 294 294 293 293 293 292 291 290 289 289 288 286 285 284 284 283
303 301 302 301 300 300 298 296 296 296 297 297 297 297 297 297 298 298 298 297 296 296 296 296 295 294 293 292 291 291 290 289 288 287 286 284 283 283
304 303 301 301 300 300 299 297 297 299 299 299 299 299 299 299 299 298 297 296 295 296 296 296 296 295 294 293 293 292 291 290 289 288 287 285 283 282
302 302 301 300 301 301 300 300 300 301 301 302 302 302 301 301 301 300 298 297 296 297 296 295 295 294 294 293 292 291 290 289 289 288 288 286 285 284
303 302 302 302 302 302 303 303 303 303 303 303 303 303 302 302 302 302 301 300 299 298 297 296 295 295 294 293 292 292 290 290 289 288 287 287 285 284
303 302 301 302 302 302 302 303 303 303 304 303 303 302 303 303 302 302 301 300 299 299 298 297 296 295 294 292 292 292 291 290 290 289 287 285 284 283
302 302 301 301 301 301 302 303 303 304 304 304 305 304 303 303 302 302 301 301 300 300 299 298 296 295 293 292 291 291 291 290 290 289 288 285 283 282
301 300 300 301 301 302 303 304 304 305 305 305 306 306 305 304 302 301 301 302 301 301 300 299 297 294 293 293 293 292 292 291 290 289 287 286 285 283
301 301 301 302 302 302 304 305 305 305 305 306 306 306 305 304 303 303 302 302 303 302 302 301 298 296 295 295 294 293 292 292 292 290 289 287 285 284
301 301 301 302 303 303 303 304 305 306 305 305 305 305 304 304 304 303 303 304 304 303 302 301 300 298 297 296 294 294 294 294 293 291 290 288 287 285
302 302 303 302 302 302 302 303 304 305 305 306 306 305 304 304 305 305 305 305 304 303 302 300 300 299 299 298 296 295 295 296 295 294 291 289 287 285
Height
5866 5865 5864 5863 5863 5862 5862 5861 5861 5860 5859 5858 5857 5855 5855 5854 5853 5852 5851 5850 5849 5848 5847 5845 5844 5843 5841 5840 5839 5838 5837 5835 5834 5832 5831 5830 5829 5827
5861 5860 5859 5858 5857 5857 5856 5855 5855 5854 5853 5852 5851 5849 5848 5848 5847 5846 5844 5843 5842 5841 5840 5838 5837 5835 5834 5833 5831 5830 5829 5827 5826 5824 5823 5821 5820 5818
5856 5855 5854 5853 5852 5851 5850 5850 5849 5848 5847 5846 5844 5843 5842 5842 5841 5839 5838 5837 5835 5834 5832 5831 5829 5828 5826 5825 5823 5822 5821 5819 5817 5816 5814 5813 5811 5810
5852 5850 5849 5848 5847 5846 5845 5844 5843 5842 5841 5839 5838 5837 5836 5835 5834 5832 5831 5830 5828 5826 5825 5823 5822 5820 5818 5817 5815 5814 5812 5811 5809 5807 5806 5804 5802 5800
5847 5845 5844 5843 5841 5840 5839 5838 5837 5836 5834 5833 5832 5831 5830 5828 5827 5825 5824 5822 5820 5819 5817 5815 5813 5812 5810 5808 5807 5805 5803 5802 5800 5798 5796 5794 5793 5791
5842 5840 5839 5837 5836 5834 5833 5832 5830 5829 5828 5827 5826 5824 5823 5821 5819 5818 5816 5815 5813 5811 5809 5807 5805 5803 5801 5799 5798 5796 5794 5792 5790 5788 5786 5784 5782 5781
5837 5835 5834 5832 5830 5829 5827 5826 5824 5823 5821 5819 5818 5817 5815 5813 5812 5810 5808 5806 5804 5802 5801 5799 5796 5794 5792 5790 5788 5786 5784 5782 5780 5778 5776 5774 5772 5770
5832 5830 5828 5827 5825 5823 5821 5819 5818 5816 5814 5813 5810 5809 5807 5805 5803 5801 5800 5798 5796 5794 5791 5789 5787 5785 5783 5781 5779 5777 5775 5772 5770 5768 5766 5764 5762 5760
5827 5824 5822 5820 5818 5817 5815 5813 5811 5809 5807 5805 5803 5801 5799 5797 5795 5793 5791 5789 5787 5785 5782 5780 5778 5775 5773 5771 5768 5766 5764 5762 5760 5758 5756 5754 5752 5750
5821 5819 5816 5814 5812 5810 5808 5806 5804 5802 5800 5798 5796 5794 5791 5789 5787 5785 5782 5780 5777 5775 5773 5770 5768 5765 5763 5761 5758 5756 5754 5752 5750 5747 5745 5743 5742 5740
5815 5813 5810 5808 5805 5803 5801 5799 5797 5794 5792 5790 5787 5785 5783 5780 5778 5776 5773 5771 5768 5766 5763 5760 5758 5755 5752 5750 5748 5745 5743 5741 5739 5737 5735 5733 5731 5729
5809 5806 5804 5801 5799 5796 5794 5791 5789 5787 5784 5782 5780 5777 5775 5772 5769 5767 5764 5762 5759 5756 5753 5750 5748 5745 5742 5740 5737 5734 5732 5730 5728 5726 5724 5722 5720 5718
5802 5799 5797 5794 5792 5789 5787 5784 5782 5779 5777 5774 5772 5769 5766 5764 5761 5758 5755 5752 5750 5747 5744 5741 5738 5735 5732 5729 5727 5724 5722 5719 5717 5715 5713 5711 5709 5708
5795 5792 5790 5787 5785 5782 5779 5777 5774 5772 5769 5766 5763 5761 5758 5755 5752 5749 5746 5743 5740 5737 5734 5731 5728 5725 5722 5719 5717 5714 5711 5709 5707 5704 5703 5701 5699 5697
5788 5785 5783 5780 5778 5775 5772 5769 5767 5764 5761 5758 5755 5753 5750 5747 5744 5740 5737 5734 5731 5728 5725 5721 5718 5715 5712 5709 5707 5704 5702 5699 5697 5694 5692 5690 5688 5687
5781 5778 5776 5773 5770 5768 5765 5762 5759 5756 5753 5750 5747 5744 5741 5738 5735 5732 5728 5725 5722 5719 5715 5712 5709 5706 5703 5700 5697 5694 5692 5689 5687 5684 5682 5680 5678 5676
5774 5771 5768 5765 5763 5760 5757 5754 5751 5748 5745 5742 5739 5736 5732 5729 5726 5722 5719 5715 5712 5709 5705 5702 5699 5696 5693 5690 5687 5684 5682 5679 5677 5675 5673 5670 5668 5667
5767 5764 5761 5758 5755 5752 5750 5747 5744 5740 5737 5734 5730 5727 5724 5720 5717 5713 5710 5706 5703 5699 5696 5692 5689 5686 5683 5680 5678 5675 5672 5670 5667 5665 5663 5661 5659 5657
5760 5757 5754 5751 5748 5745 5742 5738 5735 5732 5728 5725 5722 5718 5715 5711 5708 5704 5700 5697 5693 5690 5686 5683 5679 5676 5673 5670 5668 5665 5662 5660 5658 5655 5653 5651 5649 5647
5752 5749 5746 5743 5740 5737 5734 5730 5727 5723 5720 5716 5713 5709 5706 5702 5698 5695 5691 5687 5684 5680 5676 5673 5670 5666 5663 5660 5658 5655 5652 5650 5647 5645 5643 5641 5639 5637
5744 5741 5738 5735 5732 5729 5725 5722 5718 5715 5711 5708 5704 5700 5697 5693 5689 5686 5682 5678 5674 5670 5667 5663 5660 5657 5653 5651 5648 5645 5643 5640 5638 5635 5633 5631 5629 5627
5737 5733 5730 5727 5724 5720 5717 5713 5710 5706 5703 5699 5695 5691 5688 5684 5680 5677 5673 5669 5665 5661 5657 5654 5651 5647 5644 5641 5638 5635 5633 5631 5628 5626 5623 5621 5619 5617
5729 5726 5722 5719 5715 5712 5708 5705 5701 5697 5694 5690 5686 5683 5679 5675 5671 5668 5664 5660 5656 5652 5648 5645 5641 5638 5635 5632 5629 5626 5624 5621 5618 5616 5614 5612 5609 5608